Date String (YYYY-MM-DD hh:mm:ss) UTC,Instrument flags,Ambient pressure (hPa),Sample flow (lpm),Bypass flow (lpm),Sample temperature (°C),Ambient temperature (°C),ASC tube jacket temperature (°C),LED temperature (°C),Box temperature (°C),Sample RH (%),Span deviation,Mass concentration (μg/m³),Mass concentration (μg/m³),Mass concentration (μg/m³)
DateTimeUTC,F1_M11,P_M11,Q1_M11,Q2_M11,T1_M11,T2_M11,T3_M11,T4_M11,T5_M11,U1_M11,ZSPAN_M11,X0_M11,X2_M11,X1_M11
2022-05-21 19:00:00,,0831.6,5.00,0.00,24.4,23.5,00.0,33.5,26.2,17.0,0000.0,0000.71,0000.12,0000.01
2022-05-21 19:01:00,,0831.6,4.99,0.00,24.4,23.5,00.0,33.5,26.2,17.2,0000.0,0000.83,0000.12,0000.01
2022-05-21 19:02:00,,0831.6,5.01,0.00,24.4,23.4,00.0,33.5,26.1,17.5,0000.0,0000.82,0000.11,0000.01
2022-05-21 19:03:00,,0831.6,5.00,0.00,24.4,23.4,00.0,33.5,26.1,17.3,0000.0,0000.80,0000.09,0000.01
2022-05-21 19:04:00,,0831.6,5.00,0.00,24.3,23.4,00.0,33.5,26.1,17.4,0000.0,0000.78,0000.08,0000.01
2022-05-21 19:05:00,,0831.5,5.01,0.00,24.3,23.4,00.0,33.5,26.1,18.1,0000.0,0000.73,0000.06,0000.01
2022-05-21 19:06:00,,0831.5,4.99,0.00,24.3,23.3,00.0,33.4,26.1,17.6,0000.0,0000.70,0000.05,0000.01
2022-05-21 19:07:00,,0831.6,5.02,0.00,24.3,23.3,00.0,33.4,26.0,17.2,0000.0,0000.65,0000.03,0000.01
2022-05-21 19:08:00,,0831.6,5.00,0.00,24.3,23.3,00.0,33.4,26.0,17.7,0000.0,0000.74,0000.04,0000.01
2022-05-21 19:09:00,,0831.6,4.99,0.00,24.3,23.3,00.0,33.4,26.0,17.5,0000.0,0000.78,0000.05,0000.01
2022-05-21 19:10:00,,0831.6,5.01,0.00,24.2,23.2,00.0,33.4,26.0,17.3,0000.0,0000.79,0000.06,0000.01
2022-05-21 19:11:00,,0831.6,5.00,0.00,24.2,23.2,00.0,33.4,26.0,17.2,0000.0,0000.37,0000.04,0000.01
2022-05-21 19:12:00,,0831.6,5.00,0.00,24.2,23.2,00.0,33.3,25.9,17.2,0000.0,0000.18,0000.04,0000.01
2022-05-21 19:13:00,,0831.6,5.00,0.00,24.2,23.2,00.0,33.3,25.9,18.5,0000.0,0000.21,0000.05,0000.01
2022-05-21 19:14:00,,0831.6,5.00,0.00,24.2,23.2,00.0,33.3,25.9,18.7,0000.0,0000.23,0000.06,0000.01
2022-05-21 19:15:00,,0831.6,5.01,0.00,24.2,23.2,00.0,33.3,25.9,17.8,0000.0,0000.25,0000.07,0000.01
2022-05-21 19:16:00,,0831.6,5.00,0.00,24.1,23.2,00.0,33.3,25.9,17.4,0000.0,0000.27,0000.07,0000.01
2022-05-21 19:17:00,,0831.6,4.99,0.00,24.1,23.2,00.0,33.3,25.9,18.1,0000.0,0000.36,0000.07,0000.01
2022-05-21 19:18:00,,0831.6,5.01,0.00,24.1,23.2,00.0,33.2,25.9,17.9,0000.0,0001.12,0000.08,0000.01
2022-05-21 19:19:00,,0831.6,5.00,0.00,24.1,23.2,00.0,33.2,25.9,17.6,0000.0,0001.29,0000.06,0000.01
2022-05-21 19:20:00,,0831.6,5.00,0.00,24.1,23.2,00.0,33.2,25.9,17.2,0000.0,0001.26,0000.06,0000.01
2022-05-21 19:21:00,,0831.5,5.02,0.00,24.1,23.2,00.0,33.2,25.9,17.1,0000.0,0001.24,0000.05,0000.01
2022-05-21 19:22:00,,0831.6,4.99,0.00,24.1,23.1,00.0,33.2,25.9,17.4,0000.0,0001.23,0000.04,0000.01
2022-05-21 19:23:00,,0831.6,5.00,0.00,24.1,23.1,00.0,33.2,25.9,17.8,0000.0,0001.50,0000.04,0000.01
2022-05-21 19:24:00,,0831.6,5.00,0.00,24.0,23.1,00.0,33.2,25.8,17.4,0000.0,0002.41,0000.04,0000.01
2022-05-21 19:25:00,,0831.6,4.99,0.00,24.0,23.1,00.0,33.2,25.8,18.0,0000.0,0002.48,0000.06,0000.01
2022-05-21 19:26:00,,0831.5,5.01,0.00,24.0,23.1,00.0,33.1,25.7,17.6,0000.0,0002.49,0000.07,0000.01
2022-05-21 19:27:00,,0831.5,5.00,0.00,24.0,23.1,00.0,33.1,25.7,18.3,0000.0,0002.48,0000.07,0000.01
2022-05-21 19:28:00,,0831.6,5.00,0.00,24.0,23.1,00.0,33.1,25.7,19.0,0000.0,0002.38,0000.06,0000.01
2022-05-21 19:29:00,,0831.6,5.01,0.00,24.0,23.1,00.0,33.1,25.7,18.6,0000.0,0001.74,0000.07,0000.01
2022-05-21 19:30:00,,0831.6,5.00,0.00,24.0,23.1,00.0,33.1,25.7,19.1,0000.0,0002.76,0000.08,0000.01
2022-05-21 19:31:00,,0831.6,4.99,0.00,24.0,23.1,00.0,33.1,25.7,17.9,0000.0,0003.30,0000.10,0000.01
2022-05-21 19:32:00,,0831.6,5.01,0.00,24.0,23.1,00.0,33.1,25.7,18.1,0000.0,0003.76,0000.10,0000.01
2022-05-21 19:33:00,,0831.5,4.99,0.00,24.0,23.0,00.0,33.1,25.7,17.9,0000.0,0003.91,0000.10,0000.01
2022-05-21 19:34:00,,0831.6,5.00,0.00,23.9,23.0,00.0,33.1,25.6,17.3,0000.0,0003.76,0000.12,0000.01
2022-05-21 19:35:00,,0831.5,5.00,0.00,23.9,23.0,00.0,33.0,25.6,17.8,0000.0,0002.74,0000.11,0000.01
2022-05-21 19:36:00,,0831.5,5.00,0.00,23.9,23.0,00.0,33.0,25.6,18.1,0000.0,0003.49,0000.09,0000.01
2022-05-21 19:37:00,,0831.6,5.00,0.00,23.9,23.0,00.0,33.0,25.6,18.6,0000.0,0003.85,0000.07,0000.01
2022-05-21 19:38:00,,0831.5,4.99,0.00,23.9,22.9,00.0,33.0,25.6,18.5,0000.0,0004.04,0000.08,0000.01
2022-05-21 19:39:00,,0831.4,5.01,0.00,23.9,22.9,00.0,33.0,25.6,17.9,0000.0,0004.83,0000.09,0000.01
2022-05-21 19:40:00,,0831.4,5.00,0.00,23.8,22.9,00.0,33.0,25.5,18.6,0000.0,0004.82,0000.09,0000.01
2022-05-21 19:41:00,,0831.4,4.99,0.00,23.8,22.9,00.0,33.0,25.5,18.4,0000.0,0003.31,0000.08,0000.01
2022-05-21 19:42:00,,0831.4,5.01,0.00,23.8,22.9,00.0,32.9,25.5,18.2,0000.0,0003.07,0000.10,0000.01
2022-05-21 19:43:00,,0831.4,4.98,0.00,23.8,22.9,00.0,32.9,25.5,18.3,0000.0,0002.61,0000.10,0000.01
2022-05-21 19:44:00,,0831.4,5.01,0.00,23.8,22.9,00.0,32.9,25.6,18.4,0000.0,0002.52,0000.10,0000.01
2022-05-21 19:45:00,,0831.4,5.00,0.00,23.8,22.9,00.0,32.9,25.6,18.5,0000.0,0002.48,0000.08,0000.01
2022-05-21 19:46:00,,0831.4,5.01,0.00,23.8,22.9,00.0,32.9,25.6,18.7,0000.0,0002.48,0000.08,0000.01
2022-05-21 19:47:00,,0831.4,5.00,0.00,23.8,22.9,00.0,32.9,25.6,19.0,0000.0,0001.81,0000.09,0000.01
2022-05-21 19:48:00,,0831.4,5.00,0.00,23.8,22.9,00.0,32.9,25.6,18.7,0000.0,0001.39,0000.10,0000.01
2022-05-21 19:49:00,,0831.4,5.00,0.00,23.8,23.0,00.0,32.9,25.6,19.1,0000.0,0001.30,0000.09,0000.01
2022-05-21 19:50:00,,0831.4,5.01,0.00,23.8,23.0,00.0,32.9,25.6,19.4,0000.0,0000.41,0000.07,0000.01
2022-05-21 19:51:00,,0831.4,4.99,0.00,23.8,23.0,00.0,32.9,25.6,18.9,0000.0,0000.41,0000.08,0000.01
2022-05-21 19:52:00,,0831.4,4.99,0.00,23.8,23.0,00.0,32.9,25.6,19.6,0000.0,0000.38,0000.07,0000.01
2022-05-21 19:53:00,,0831.4,5.01,0.00,23.8,23.0,00.0,32.9,25.6,18.6,0000.0,0000.24,0000.04,0000.01
2022-05-21 19:54:00,,0831.4,4.99,0.00,23.8,23.0,00.0,32.9,25.6,18.6,0000.0,0000.19,0000.04,0000.02
2022-05-21 19:55:00,,0831.4,5.00,0.00,23.8,23.0,00.0,32.9,25.6,18.7,0000.0,0000.21,0000.05,0000.02
2022-05-21 19:56:00,,0831.4,5.00,0.00,23.8,23.0,00.0,32.9,25.6,18.3,0000.0,0000.21,0000.05,0000.02
2022-05-21 19:57:00,,0831.4,5.01,0.00,23.8,23.0,00.0,32.8,25.6,18.1,0000.0,0000.25,0000.07,0000.02
2022-05-21 19:58:00,,0831.3,5.00,0.00,23.8,23.0,00.0,32.8,25.6,19.0,0000.0,0000.16,0000.07,0000.02
2022-05-21 19:59:00,,0831.3,4.99,0.00,23.8,23.0,00.0,32.8,25.6,18.2,0000.0,0000.14,0000.06,0000.02
